CW6777 Weather Reports


Display with metric or nautical units.
time (UTC)temp
F
wind
direction
speed
MPH
gust
MPH
rain 1hr
in
rain 24hr
in
rain mn
in
humidity
%
barometer
mb
20260507115012 41 63 0.0 0.0 0.00 0.12 0.00 75 1010.3
20260507114516 40 102 0.0 0.0 0.00 0.13 0.00 77 1010.2
20260507114010 39 28 0.0 0.0 0.00 0.14 0.00 79 1010.2
20260507113508 39 90 0.0 0.0 0.00 0.16 0.00 82 1010.2
20260507113040 38 93 0.0 0.0 0.00 0.17 0.00 83 1010.1
20260507112511 37 20 0.0 0.0 0.00 0.18 0.00 86 1010.1
20260507112011 37 20 0.0 0.0 0.00 0.19 0.00 89 1010.2
20260507111527 36 20 0.0 0.0 0.00 0.19 0.00 90 1010.0
20260507111010 36 20 0.0 0.0 0.00 0.19 0.00 91 1010.0
20260507110506 35 20 0.0 0.0 0.00 0.19 0.00 91 1009.9
20260507110029 35 20 0.0 0.0 0.00 0.19 0.00 91 1010.0
20260507105504 35 24 0.0 0.0 0.00 0.19 0.00 91 1009.9
20260507105007 34 76 0.0 0.0 0.00 0.20 0.00 90 1009.8
20260507104507 34 75 0.0 0.0 0.00 0.20 0.00 90 1009.7
20260507104010 34 76 0.0 0.0 0.00 0.20 0.00 89 1009.8
20260507103502 34 76 0.0 0.0 0.00 0.20 0.00 89 1009.7
20260507103004 34 76 0.0 0.0 0.00 0.20 0.00 89 1009.8
20260507102504 34 76 0.0 0.0 0.00 0.20 0.00 88 1009.7
20260507102006 34 76 0.0 0.0 0.00 0.21 0.00 88 1009.6
20260507101504 34 76 0.0 0.0 0.00 0.21 0.00 88 1009.6
20260507101007 35 76 0.0 0.0 0.00 0.21 0.00 88 1009.7
20260507100503 35 76 0.0 0.0 0.00 0.21 0.00 87 1009.6
20260507100013 35 76 0.0 0.0 0.00 0.21 0.00 87 1009.6
20260507095503 35 76 0.0 0.0 0.00 0.21 0.00 86 1009.6
20260507095004 35 76 0.0 0.0 0.00 0.21 0.00 86 1009.5
20260507094510 35 76 0.0 0.0 0.00 0.21 0.00 86 1009.5
20260507094003 35 76 0.0 0.0 0.00 0.21 0.00 86 1009.5
20260507093504 36 76 0.0 0.0 0.00 0.21 0.00 86 1009.4
20260507093013 36 76 0.0 0.0 0.00 0.21 0.00 85 1009.4
20260507092505 36 76 0.0 0.0 0.00 0.21 0.00 85 1009.4
20260507092003 36 76 0.0 0.0 0.00 0.21 0.00 84 1009.4
20260507091503 37 76 0.0 0.0 0.00 0.21 0.00 83 1009.5
20260507091004 37 76 0.0 0.0 0.00 0.21 0.00 83 1009.5
20260507090505 37 76 0.0 0.0 0.00 0.21 0.00 82 1009.5
20260507090007 38 76 0.0 0.0 0.00 0.21 0.00 81 1009.5
20260507085504 38 76 0.0 0.0 0.00 0.21 0.00 80 1009.4
20260507085005 39 76 0.0 0.0 0.00 0.21 0.00 80 1009.4
20260507084518 39 75 0.0 0.0 0.00 0.21 0.00 78 1009.4
20260507084005 40 76 0.0 0.0 0.00 0.21 0.00 77 1009.5
20260507083506 40 76 0.0 0.0 0.00 0.21 0.00 77 1009.5
20260507083010 41 76 0.0 0.0 0.00 0.21 0.00 76 1009.5
20260507082509 41 76 0.0 0.0 0.00 0.21 0.00 73 1009.6
20260507082003 42 76 0.0 0.0 0.00 0.21 0.00 75 1009.6
20260507081506 42 76 0.0 0.0 0.00 0.21 0.00 72 1009.6
20260507081005 43 76 0.0 0.0 0.00 0.21 0.00 73 1009.6
20260507080505 43 76 0.0 0.0 0.00 0.21 0.00 73 1009.6
20260507080007 44 76 0.0 0.0 0.00 0.21 0.00 71 1009.6
20260507075503 44 76 0.0 0.0 0.00 0.21 0.00 72 1009.6
20260507075008 44 61 0.0 0.0 0.00 0.21 0.00 70 1009.6
20260507074508 44 93 0.0 0.0 0.00 0.21 0.00 69 1009.6
20260507074004 44 55 0.0 0.0 0.00 0.21 0.00 72 1009.6
20260507073505 44 61 0.0 0.0 0.00 0.21 0.00 72 1009.7
20260507073014 44 62 0.0 2.0 0.00 0.21 0.00 71 1009.6
20260507072502 44 71 0.0 5.0 0.00 0.21 0.00 71 1009.6
20260507072003 44 73 0.0 5.0 0.00 0.21 0.00 71 1009.6
20260507071514 44 51 0.0 2.0 0.00 0.21 0.00 70 1009.5
20260507071008 44 99 0.0 1.0 0.00 0.21 0.00 70 1009.4
20260507070507 44 55 0.0 1.0 0.00 0.21 0.00 69 1009.4
20260507070016 44 67 0.0 2.0 0.00 0.21 0.00 71 1009.4
20260507065505 44 108 0.0 2.0 0.00 0.21 0.00 70 1009.5
20260507065006 44 42 0.0 2.0 0.00 0.21 0.00 68 1009.6
20260507064508 44 14 0.0 2.0 0.00 0.21 0.00 70 1009.6
20260507064003 44 47 0.0 2.0 0.00 0.21 0.00 70 1009.6
20260507063506 44 92 0.0 2.0 0.00 0.21 0.00 70 1009.6
20260507063010 44 15 0.0 1.0 0.00 0.21 0.00 71 1009.5
20260507062503 44 52 0.0 2.0 0.00 0.21 0.00 69 1009.6
20260507062002 45 52 0.0 2.0 0.00 0.21 0.00 69 1009.7
20260507061508 45 132 0.0 2.0 0.00 0.21 0.00 70 1009.8
20260507061010 45 89 0.0 2.0 0.00 0.21 0.00 70 1009.9
20260507060503 45 23 0.0 2.0 0.00 0.21 0.00 69 1010.0
20260507060010 45 69 0.0 2.0 0.00 0.21 0.00 70 1010.0
20260507055508 46 74 0.0 2.0 0.00 0.21 0.00 66 1010.0
20260507055007 46 73 0.0 3.0 0.00 0.21 0.00 70 1010.0
20260507054508 46 49 0.0 4.0 0.00 0.21 0.00 64 1010.0
20260507054007 46 30 0.0 4.0 0.00 0.21 0.00 64 1009.9
20260507053507 46 31 0.0 4.0 0.00 0.21 0.00 68 1009.9
20260507053008 46 60 0.0 1.0 0.00 0.21 0.00 68 1009.9
20260507052506 46 114 0.0 3.0 0.00 0.21 0.00 66 1009.9
20260507052007 46 71 0.0 3.0 0.00 0.21 0.00 66 1009.9
20260507051512 47 27 1.0 3.0 0.00 0.21 0.00 68 1010.1
20260507051009 47 59 0.0 2.0 0.00 0.21 0.00 69 1010.1
20260507050505 47 59 0.0 2.0 0.00 0.21 0.00 64 1010.1
20260507050034 47 61 0.0 2.0 0.00 0.21 0.00 65 1010.0
20260507045508 47 96 0.0 2.0 0.00 0.21 0.00 64 1009.9
20260507045007 47 124 0.0 3.0 0.00 0.21 0.00 63 1010.0
20260507044524 47 59 0.0 4.0 0.00 0.21 0.00 63 1010.1
20260507044007 47 52 2.0 4.0 0.00 0.21 0.00 64 1010.0
20260507043507 47 63 0.0 3.0 0.00 0.21 0.00 70 1009.9
20260507043025 47 58 0.0 3.0 0.00 0.21 0.00 71 1010.0
20260507042509 47 26 0.0 2.0 0.00 0.21 0.00 73 1010.1
20260507042007 47 49 0.0 2.0 0.00 0.21 0.00 71 1010.0
20260507041513 48 60 0.0 0.0 0.00 0.21 0.00 73 1009.8
20260507041007 48 60 0.0 0.0 0.00 0.21 0.00 73 1009.5
20260507040509 48 60 0.0 0.0 0.00 0.21 0.00 71 1009.4
20260507040020 48 60 0.0 2.0 0.00 0.21 0.00 70 1009.7
20260507035505 48 60 0.0 2.0 0.00 0.21 0.21 67 1009.8
20260507035007 48 113 0.0 2.0 0.00 0.21 0.21 66 1009.6
20260507034519 49 134 0.0 2.0 0.00 0.21 0.21 66 1009.7
20260507034013 49 103 0.0 2.0 0.00 0.21 0.21 66 1009.7
20260507033507 49 92 0.0 2.0 0.00 0.21 0.21 65 1009.6
20260507033019 49 211 0.0 2.0 0.00 0.21 0.21 65 1009.6
20260507032511 49 67 0.0 2.0 0.00 0.21 0.21 66 1009.6
20260507032011 49 117 0.0 4.0 0.00 0.21 0.21 67 1009.5
20260507031514 49 105 0.0 6.0 0.00 0.21 0.21 65 1009.6
20260507031007 49 41 0.0 6.0 0.00 0.21 0.21 68 1009.6
20260507030508 49 55 0.0 4.0 0.00 0.21 0.21 68 1009.4
20260507030013 49 139 0.0 4.0 0.00 0.21 0.21 68 1009.4
20260507025509 49 41 0.0 3.0 0.00 0.21 0.21 73 1009.4
20260507025013 49 66 0.0 3.0 0.00 0.21 0.21 73 1009.4
20260507024518 49 134 0.0 4.0 0.00 0.21 0.21 73 1009.2
20260507024012 49 134 0.0 6.0 0.00 0.21 0.21 73 1009.1
20260507023509 49 171 1.0 6.0 0.00 0.21 0.21 75 1009.2
20260507023021 49 146 0.0 6.0 0.00 0.21 0.21 77 1009.1
20260507022509 49 107 1.0 4.0 0.00 0.21 0.21 78 1008.9
20260507022009 50 140 0.0 3.0 0.00 0.21 0.21 78 1008.9
20260507021528 50 65 0.0 3.0 0.00 0.21 0.21 80 1008.9
20260507021007 50 167 0.0 5.0 0.00 0.21 0.21 80 1008.9
20260507020511 50 135 1.0 5.0 0.00 0.21 0.21 81 1008.9
20260507020023 50 141 0.0 1.0 0.00 0.21 0.21 81 1008.9
20260507015506 50 141 0.0 1.0 0.00 0.21 0.21 82 1009.0
20260507015004 50 141 0.0 1.0 0.00 0.21 0.21 81 1009.1
20260507014504 50 109 0.0 1.0 0.00 0.21 0.21 82 1009.3
20260507014005 51 61 0.0 1.0 0.00 0.21 0.21 82 1009.3
20260507013504 51 61 0.0 0.0 0.00 0.21 0.21 81 1009.3
20260507013009 51 61 0.0 0.0 0.00 0.21 0.21 81 1009.2
20260507012505 51 61 0.0 0.0 0.00 0.21 0.21 80 1009.2
20260507012003 51 61 0.0 0.0 0.00 0.21 0.21 79 1009.3
20260507011514 51 61 0.0 4.0 0.00 0.21 0.21 80 1009.3
20260507011003 51 61 0.0 4.0 0.00 0.21 0.21 78 1009.4
20260507010506 51 34 0.0 4.0 0.00 0.21 0.21 78 1009.4
20260507010008 51 347 0.0 6.0 0.00 0.21 0.21 78 1009.4
20260507005504 51 107 0.0 6.0 0.00 0.21 0.21 77 1009.2
20260507005007 52 112 0.0 2.0 0.00 0.21 0.21 78 1009.1
20260507004505 52 73 0.0 8.0 0.00 0.21 0.21 77 1009.3
20260507004004 52 31 1.0 8.0 0.00 0.21 0.21 77 1009.3
20260507003508 52 105 0.0 7.0 0.00 0.21 0.21 77 1009.1
20260507003004 52 130 0.0 3.0 0.00 0.21 0.21 77 1009.1
20260507002504 52 44 0.0 2.0 0.00 0.21 0.21 80 1009.0
20260507002006 52 144 0.0 3.0 0.00 0.21 0.21 80 1008.9
20260507001505 52 92 0.0 3.0 0.00 0.21 0.21 79 1008.7
20260507001004 52 50 0.0 3.0 0.00 0.21 0.21 80 1008.6
20260507000508 52 30 0.0 3.0 0.00 0.21 0.21 80 1008.7
20260507000004 52 56 0.0 3.0 0.00 0.21 0.21 81 1008.5
20260506235504 52 123 0.0 4.0 0.00 0.21 0.21 80 1008.2
20260506235007 52 34 1.0 7.0 0.00 0.21 0.21 79 1008.3
20260506234505 52 82 1.0 7.0 0.00 0.21 0.21 79 1008.2
20260506234007 52 99 1.0 5.0 0.00 0.21 0.21 79 1008.0
20260506233504 52 27 1.0 10.0 0.00 0.21 0.21 79 1007.9
20260506233007 52 133 1.0 10.0 0.00 0.21 0.21 79 1007.9
20260506232503 52 82 0.0 3.0 0.00 0.21 0.21 80 1007.7
20260506232003 52 24 0.0 4.0 0.00 0.21 0.21 80 1007.6
20260506231508 53 136 1.0 6.0 0.00 0.21 0.21 79 1007.7
20260506231004 53 46 1.0 5.0 0.00 0.21 0.21 79 1007.6
20260506230506 53 142 0.0 6.0 0.00 0.21 0.21 79 1007.6
20260506230006 53 122 1.0 10.0 0.00 0.21 0.21 78 1007.8
20260506225508 53 11 3.0 10.0 0.00 0.21 0.21 78 1007.8
20260506225004 54 180 1.0 9.0 0.00 0.21 0.21 79 1007.8
20260506224506 54 50 1.0 7.0 0.00 0.21 0.21 80 1007.9
20260506224006 54 350 1.0 7.0 0.00 0.21 0.21 79 1007.8
20260506223511 54 173 1.0 8.0 0.00 0.21 0.21 79 1007.6
20260506223015 54 91 3.0 8.0 0.00 0.21 0.21 79 1007.5
20260506222509 54 41 3.0 7.0 0.00 0.21 0.21 78 1007.3
20260506222013 55 130 1.0 7.0 0.00 0.21 0.21 78 1007.1
20260506221506 55 44 2.0 7.0 0.00 0.21 0.21 78 1007.1
20260506221007 55 150 0.0 7.0 0.00 0.21 0.21 78 1007.1
20260506220507 55 92 1.0 9.0 0.00 0.21 0.21 79 1007.0
20260506220007 56 82 2.0 9.0 0.00 0.21 0.21 78 1007.1
20260506215503 56 82 1.0 7.0 0.00 0.21 0.21 78 1007.0
20260506215012 56 31 1.0 9.0 0.00 0.21 0.21 78 1007.0
20260506214508 56 101 1.0 9.0 0.00 0.21 0.21 77 1007.0
20260506214006 57 60 2.0 8.0 0.00 0.21 0.21 77 1006.9
20260506213508 57 55 2.0 9.0 0.00 0.21 0.21 78 1006.8
20260506213006 58 63 5.0 10.0 0.00 0.21 0.21 77 1006.6
20260506212505 58 57 1.0 10.0 0.00 0.21 0.21 78 1006.5
20260506212005 58 355 2.0 11.0 0.00 0.21 0.21 78 1006.4
20260506211506 58 306 3.0 11.0 0.00 0.21 0.21 77 1006.2
20260506211006 58 5 1.0 12.0 0.00 0.21 0.21 79 1006.0
20260506210505 58 25 2.0 12.0 0.00 0.21 0.21 77 1006.0
20260506210015 58 22 5.0 11.0 0.00 0.21 0.21 78 1006.0
20260506205504 58 336 4.0 11.0 0.00 0.21 0.21 78 1005.9
20260506205008 58 109 2.0 8.0 0.00 0.21 0.21 81 1005.8
20260506204512 58 340 3.0 9.0 0.00 0.22 0.21 81 1005.8
20260506204010 58 30 2.0 10.0 0.00 0.25 0.21 81 1005.8
20260506203503 58 310 4.0 11.0 0.00 0.26 0.21 81 1005.7
20260506203021 58 85 3.0 11.0 0.00 0.26 0.21 80 1005.7
20260506202510 58 355 2.0 12.0 0.00 0.26 0.21 82 1005.5
20260506202007 58 40 4.0 13.0 0.00 0.26 0.21 82 1005.5
20260506201511 58 83 5.0 13.0 0.00 0.26 0.21 80 1005.7
20260506201005 58 360 2.0 13.0 0.00 0.26 0.21 83 1005.5
20260506200506 58 317 3.0 10.0 0.00 0.26 0.21 83 1005.6
20260506200016 58 355 3.0 12.0 0.00 0.26 0.21 84 1005.4
20260506195508 58 52 5.0 12.0 0.00 0.26 0.21 83 1005.3
20260506195010 59 332 4.0 12.0 0.00 0.26 0.21 82 1005.2
20260506194516 59 346 4.0 12.0 0.00 0.26 0.21 83 1005.3
20260506194010 59 350 4.0 13.0 0.00 0.26 0.21 84 1005.1
20260506193507 59 136 3.0 13.0 0.00 0.26 0.21 83 1005.1
20260506193022 60 34 4.0 11.0 0.00 0.26 0.21 83 1005.0
20260506192508 60 21 4.0 11.0 0.00 0.26 0.21 83 1004.9
20260506192008 60 352 4.0 11.0 0.00 0.26 0.21 83 1004.8
20260506191522 60 28 4.0 11.0 0.00 0.26 0.21 83 1004.7
20260506191006 61 5 3.0 11.0 0.00 0.26 0.21 85 1004.9
20260506190508 61 337 2.0 6.0 0.00 0.26 0.21 86 1004.4
20260506190015 61 31 2.0 8.0 0.00 0.26 0.21 86 1004.5
20260506185506 61 351 1.0 8.0 0.00 0.26 0.21 87 1004.6
20260506185007 61 40 2.0 6.0 0.00 0.26 0.21 88 1004.4
20260506184514 60 267 1.0 4.0 0.00 0.26 0.21 90 1004.6
20260506184007 59 334 1.0 6.0 0.01 0.26 0.21 90 1004.4
20260506183508 59 323 2.0 6.0 0.01 0.26 0.21 91 1004.7
20260506183014 59 336 1.0 6.0 0.01 0.26 0.21 91 1004.8
20260506182504 58 329 2.0 5.0 0.01 0.26 0.21 91 1004.5
20260506182008 58 317 0.0 8.0 0.01 0.26 0.21 91 1004.7
20260506181528 58 345 2.0 9.0 0.01 0.26 0.21 91 1004.6
20260506181004 58 17 3.0 9.0 0.01 0.26 0.21 91 1004.5
20260506180503 58 338 2.0 8.0 0.01 0.26 0.21 92 1004.8
20260506180014 58 351 2.0 12.0 0.01 0.26 0.21 92 1004.5
20260506175503 58 9 4.0 12.0 0.01 0.26 0.21 92 1004.4
20260506175004 59 5 3.0 10.0 0.01 0.26 0.21 93 1004.5
20260506174504 58 326 2.0 8.0 0.01 0.26 0.21 93 1004.4
20260506174003 58 331 2.0 9.0 0.00 0.25 0.20 93 1004.4
20260506173504 58 360 3.0 9.0 0.00 0.25 0.20 93 1004.4
20260506173006 58 5 1.0 6.0 0.00 0.25 0.20 92 1004.5
20260506172504 59 315 1.0 6.0 0.00 0.25 0.20 92 1004.6
20260506172004 59 314 1.0 6.0 0.01 0.25 0.20 91 1004.5
20260506171510 59 355 2.0 6.0 0.01 0.25 0.20 91 1004.3
20260506171003 59 320 2.0 8.0 0.01 0.25 0.20 90 1004.3
20260506170503 59 279 1.0 10.0 0.01 0.25 0.20 90 1004.3
20260506170009 59 348 3.0 10.0 0.01 0.25 0.20 89 1004.3
20260506165503 60 302 3.0 10.0 0.01 0.25 0.20 88 1004.2
20260506165004 60 313 4.0 11.0 0.01 0.25 0.20 89 1004.2
20260506164505 60 337 2.0 11.0 0.01 0.25 0.20 90 1004.1
20260506164003 60 341 3.0 10.0 0.01 0.25 0.20 90 1004.2
20260506163505 60 286 1.0 9.0 0.01 0.25 0.20 93 1004.2
20260506163006 60 343 2.0 8.0 0.01 0.25 0.20 92 1004.2
20260506162503 60 212 1.0 7.0 0.01 0.25 0.20 93 1004.4
20260506162003 59 334 2.0 6.0 0.00 0.24 0.19 92 1004.3
20260506161504 59 342 1.0 7.0 0.00 0.24 0.19 94 1004.4
20260506161003 59 277 2.0 8.0 0.00 0.24 0.19 93 1004.4
20260506160504 58 319 2.0 8.0 0.00 0.24 0.19 93 1004.2
20260506160008 58 355 1.0 7.0 0.00 0.24 0.19 93 1004.3
20260506155503 58 298 1.0 7.0 0.00 0.24 0.19 93 1004.3
20260506155003 57 331 1.0 5.0 0.00 0.24 0.19 93 1004.5
20260506154508 57 14 1.0 5.0 0.00 0.24 0.19 93 1004.4
20260506154004 57 322 1.0 5.0 0.00 0.24 0.19 92 1004.3
20260506153504 57 333 1.0 5.0 0.00 0.24 0.19 92 1004.4
20260506153005 57 360 1.0 6.0 0.00 0.24 0.19 92 1004.3
20260506152504 57 355 1.0 6.0 0.00 0.24 0.19 92 1004.3
20260506152007 57 296 2.0 5.0 0.00 0.24 0.19 91 1004.1
20260506151504 57 315 2.0 5.0 0.00 0.24 0.19 91 1004.2
20260506151004 57 325 1.0 7.0 0.00 0.24 0.19 92 1004.1
20260506150506 57 298 3.0 7.0 0.01 0.24 0.19 92 1004.1
20260506150010 57 327 2.0 7.0 0.01 0.24 0.19 91 1004.0
20260506145504 57 338 1.0 8.0 0.01 0.24 0.19 92 1004.0
20260506145005 57 323 2.0 8.0 0.01 0.24 0.19 92 1003.9
20260506144508 57 336 2.0 6.0 0.01 0.24 0.19 92 1003.8
20260506144005 57 31 1.0 8.0 0.02 0.24 0.19 92 1003.9
20260506143505 56 5 3.0 8.0 0.02 0.24 0.19 92 1003.9
20260506143019 56 350 2.0 9.0 0.02 0.24 0.19 92 1003.9
20260506142504 56 312 3.0 9.0 0.02 0.24 0.19 92 1003.8
20260506142008 56 277 2.0 6.0 0.02 0.24 0.19 92 1003.7
20260506141514 56 342 0.0 5.0 0.02 0.24 0.19 92 1003.8
20260506141004 56 32 1.0 8.0 0.02 0.24 0.19 91 1003.7
20260506140505 56 307 2.0 8.0 0.01 0.23 0.18 91 1003.7
20260506140007 56 42 3.0 7.0 0.01 0.23 0.18 91 1003.9
20260506135506 56 304 2.0 5.0 0.02 0.23 0.18 92 1003.6
20260506135005 56 253 0.0 8.0 0.02 0.23 0.18 92 1003.8
20260506134508 56 355 1.0 8.0 0.02 0.23 0.18 91 1003.9
20260506134003 56 279 3.0 8.0 0.01 0.22 0.17 91 1003.9
20260506133506 56 323 0.0 5.0 0.01 0.22 0.17 92 1003.8
20260506133009 56 333 0.0 6.0 0.01 0.22 0.17 92 1003.9
20260506132509 55 339 1.0 6.0 0.01 0.22 0.17 91 1004.0
20260506132009 55 340 1.0 5.0 0.02 0.22 0.17 92 1004.0
20260506131516 55 342 0.0 5.0 0.02 0.22 0.17 92 1004.2
20260506131008 55 329 1.0 7.0 0.04 0.22 0.17 91 1004.1
20260506130507 55 325 2.0 7.0 0.05 0.22 0.17 91 1004.1
20260506130007 55 309 1.0 5.0 0.06 0.22 0.17 92 1004.0
20260506125507 55 315 1.0 4.0 0.06 0.21 0.16 91 1003.9
20260506125003 55 26 1.0 10.0 0.07 0.21 0.16 91 1003.7
20260506124504 55 323 2.0 10.0 0.08 0.21 0.16 91 1003.8
20260506124004 55 336 1.0 5.0 0.09 0.21 0.16 91 1003.9
20260506123504 55 340 2.0 5.0 0.11 0.21 0.16 91 1003.9
20260506123010 55 338 0.0 6.0 0.12 0.21 0.16 92 1004.0
20260506122504 55 334 1.0 6.0 0.13 0.21 0.16 92 1004.1
20260506122006 55 295 0.0 3.0 0.13 0.20 0.15 92 1004.0
20260506121508 55 304 0.0 3.0 0.13 0.20 0.15 93 1004.0
20260506121005 55 301 0.0 4.0 0.11 0.18 0.13 92 1004.2
20260506120512 55 266 0.0 6.0 0.10 0.17 0.12 92 1004.5
20260506120007 55 261 1.0 6.0 0.09 0.16 0.11 92 1004.5
20260506115506 55 266 0.0 5.0 0.08 0.15 0.10 92 1004.5